Weather History for Naples, FL

Change the Weather History Date:

Friday, April 5, 2013

  Actual Average Record
Temperature  
Mean Temperature 68 °F 72 °F  
Max Temperature 72 °F 82 °F 91 °F (1969)
Min Temperature 64 °F 62 °F 40 °F (1987)
Degree Days  
Heating Degree Days 0 0  
Month to date heating degree days 0 0  
Since 1 July heating degree days 182 256  
Cooling Degree Days 3 7  
Month to date cooling degree days 39 35  
Year to date cooling degree days 430 402  
Growing Degree Days 18 (Base 50)    
Moisture  
Dew Point 64 °F    
Average Humidity 79    
Maximum Humidity 90    
Minimum Humidity 67    
Precipitation  
Precipitation 0.54 in 0.09 in 0.91 in (1993)
Month to date precipitation 0.91 0.41  
Year to date precipitation 3.35 6.74  
Snow  
Snow 0.00 in - - ()
Month to date snowfall 0.0  
Since 1 July snowfall 0.0  
Snow Depth 0.00 in    
Sea Level Pressure  
Sea Level Pressure 29.92 in    
Wind  
Wind Speed 10 mph (West)    
Max Wind Speed 35 mph    
Max Gust Speed 45 mph    
Visibility 6 miles    
Events Rain , Thunderstorm    
T = Trace of Precipitation, MM = Missing Value Source: NWS Daily Summary

Daily Weather History Graph

Daily Weather History Graph

Search for Another Location

Airport:

Trip Planner

Search our weather history database for the weather conditions in past years. The results will help you decide how hot, cold, wet, or windy it might be!

Date:

Astronomy

Apr. 05, 2013 Rise Set
Actual Time 7:13 AM EDT 7:46 PM EDT
Civil Twilight 6:50 AM EDT 8:09 PM EDT
Nautical Twilight 6:23 AM EDT 8:36 PM EDT
Astronomical Twilight 5:55 AM EDT 9:04 PM EDT
Moon 3:53 AM EDT (4/5) 3:33 PM EDT (4/5)
Length of Visible Light 13h 18m
Length of Day
12h 32m
Waning Crescent, 24% of the Moon is Illuminated
Apr 5
Waning Crescent
Apr 10
New
Apr 18
First Quarter
Apr 25
Full
May 2
Last Quarter

Hourly Weather History & Observations

Time (EDT) Temp. Dew Point Humidity Pressure Visibility Wind Dir Wind Speed Gust Speed Precip Events Conditions
12:08 AM 66.2 °F 66.2 °F 100% 30.02 in 7.0 mi SW 11.5 mph - 0.00 in Rain , Thunderstorm Light Rain
12:53 AM 68.0 °F 66.0 °F 93% 30.01 in 6.0 mi WNW 3.5 mph - 0.08 in Rain , Thunderstorm Light Thunderstorms and Rain
1:36 AM 68.0 °F 64.4 °F 88% 30.01 in 5.0 mi NW 6.9 mph - 0.05 in Rain Rain
1:49 AM 66.2 °F 64.4 °F 94% 29.99 in 6.0 mi NNW 6.9 mph - 0.07 in Rain , Thunderstorm Thunderstorms and Rain
1:53 AM 66.9 °F 64.9 °F 93% 29.98 in 5.0 mi NNW 4.6 mph - 0.08 in Rain , Thunderstorm Thunderstorms and Rain
2:18 AM 66.2 °F 64.4 °F 94% 29.99 in 3.0 mi Calm Calm - 0.10 in Rain Heavy Rain
2:48 AM 66.2 °F 64.4 °F 94% 30.01 in 5.0 mi SSW 6.9 mph - 0.19 in Rain , Thunderstorm Thunderstorms and Rain
2:53 AM 66.9 °F 64.9 °F 93% 30.00 in 5.0 mi SSW 4.6 mph - 0.21 in Rain , Thunderstorm Thunderstorms and Rain
3:03 AM 66.2 °F 64.4 °F 94% 29.99 in 4.0 mi West 4.6 mph - 0.02 in Rain Rain
3:53 AM 66.0 °F 64.9 °F 96% 29.88 in 8.0 mi SSE 5.8 mph - 0.09 in Rain Light Rain
4:53 AM 69.1 °F 64.0 °F 84% 29.86 in 9.0 mi SSW 11.5 mph - 0.00 in Rain Light Rain
5:53 AM 71.1 °F 64.9 °F 81% 29.83 in 10.0 mi SSW 19.6 mph 35.7 mph 0.01 in Rain Light Rain
6:53 AM 70.0 °F 64.0 °F 81% 29.83 in 10.0 mi South 20.7 mph - 0.00 in Rain Light Rain
7:32 AM 69.8 °F 64.4 °F 83% 29.88 in 10.0 mi SSW 12.7 mph - 0.00 in Rain , Thunderstorm Light Rain
7:53 AM 71.1 °F 64.0 °F 78% 29.89 in 9.0 mi SSW 11.5 mph - 0.00 in Rain Light Rain
8:43 AM 69.8 °F 66.2 °F 88% 29.94 in 4.0 mi WNW 16.1 mph 26.5 mph 0.03 in Rain Rain
8:53 AM 68.0 °F 64.9 °F 90% 29.93 in 5.0 mi NW 11.5 mph 23.0 mph 0.03 in Rain Light Rain
9:53 AM 69.1 °F 66.0 °F 90% 29.92 in 6.0 mi Calm Calm - 0.02 in Rain Light Rain
10:53 AM 71.1 °F 64.9 °F 81% 29.94 in 7.0 mi West 5.8 mph - 0.00 in   Overcast
11:53 AM 71.1 °F 64.9 °F 81% 29.93 in 8.0 mi WSW 8.1 mph - 0.00 in   Mostly Cloudy
12:53 PM 70.0 °F 66.0 °F 87% 29.93 in 5.0 mi SW 4.6 mph - 0.00 in Rain Light Rain
1:05 PM 69.8 °F 66.2 °F 88% 29.92 in 4.0 mi SSW 5.8 mph - 0.02 in Rain , Thunderstorm Light Rain
1:20 PM 69.8 °F 66.2 °F 88% 29.93 in 4.0 mi SSW 9.2 mph - 0.03 in Rain Light Rain
1:53 PM 70.0 °F 66.9 °F 90% 29.91 in 6.0 mi SW 6.9 mph - 0.06 in Rain Light Rain
2:17 PM 69.8 °F 66.2 °F 88% 29.92 in 7.0 mi WSW 8.1 mph - 0.00 in   Overcast
2:51 PM 69.8 °F 66.2 °F 88% 29.91 in 4.0 mi SW 9.2 mph - 0.00 in Rain Light Rain
2:53 PM 69.1 °F 66.0 °F 90% 29.91 in 3.0 mi WSW 6.9 mph - 0.01 in Rain Light Rain
2:56 PM 69.8 °F 66.2 °F 88% 29.91 in 2.5 mi WSW 6.9 mph - 0.00 in Rain Rain
3:03 PM 69.8 °F 66.2 °F 88% 29.90 in 2.0 mi West 6.9 mph - 0.03 in Rain Light Rain
3:06 PM 68.0 °F 66.2 °F 94% 29.90 in 1.8 mi West 6.9 mph - 0.03 in Rain Rain
3:09 PM 68.0 °F 66.2 °F 94% 29.90 in 2.5 mi West 5.8 mph - 0.03 in Rain Light Rain
3:13 PM 68.0 °F 66.2 °F 94% 29.89 in 3.0 mi West 6.9 mph - 0.03 in Rain Light Rain
3:16 PM 68.0 °F 66.2 °F 94% 29.89 in 2.0 mi West 6.9 mph - 0.03 in Rain Light Rain
3:25 PM 68.0 °F 66.2 °F 94% 29.89 in 3.0 mi WSW 6.9 mph - 0.03 in Rain Light Rain
3:53 PM 68.0 °F 66.0 °F 93% 29.88 in 7.0 mi WNW 9.2 mph - 0.03 in   Overcast
4:00 PM 68.0 °F 64.4 °F 88% 29.87 in 7.0 mi WNW 9.2 mph - N/A   Overcast
4:53 PM 68.0 °F 63.0 °F 84% 29.87 in 6.0 mi WNW 11.5 mph - 0.00 in   Haze
5:13 PM 68.0 °F 62.6 °F 83% 29.87 in 7.0 mi WNW 11.5 mph - N/A   Overcast
5:53 PM 69.1 °F 60.1 °F 73% 29.86 in 8.0 mi NW 9.2 mph - N/A   Overcast
6:53 PM 70.0 °F 59.0 °F 68% 29.88 in 9.0 mi WNW 12.7 mph 19.6 mph N/A   Overcast
7:53 PM 66.9 °F 57.0 °F 70% 29.90 in 10.0 mi NW 12.7 mph 20.7 mph N/A   Clear
8:53 PM 66.0 °F 55.9 °F 70% 29.93 in 10.0 mi NW 10.4 mph 17.3 mph N/A   Clear
9:53 PM 64.9 °F 57.0 °F 75% 29.96 in 10.0 mi NW 10.4 mph 16.1 mph N/A   Clear
10:53 PM 64.0 °F 55.9 °F 75% 29.97 in 10.0 mi WNW 9.2 mph - N/A   Partly Cloudy
11:25 PM 64.4 °F 57.2 °F 77% 29.97 in 10.0 mi NW 12.7 mph 18.4 mph N/A   Mostly Cloudy
11:53 PM 64.9 °F 54.0 °F 68% 29.97 in 10.0 mi NW 11.5 mph 18.4 mph N/A   Mostly Cloudy